| time (UTC) | temp F | wind direction | speed knots | gust knots | rain 1hr in | rain 24hr in | rain mn in | humidity % | barometer mb |
| 20260906224549 | 66 | 64 | 9.6 | 13.0 | 0.00 | 0.00 | 0.00 | 69 | 1016.6 |
| 20260906223051 | 66 | 47 | 7.0 | 10.4 | 0.00 | 0.00 | 0.00 | 70 | 1016.6 |
| 20260906221544 | 66 | 74 | 7.8 | 10.4 | 0.00 | 0.00 | 0.00 | 69 | 1016.7 |
| 20260906220052 | 66 | 57 | 7.8 | 13.9 | 0.00 | 0.00 | 0.00 | 70 | 1016.6 |
| 20260906214553 | 66 | 69 | 7.8 | 13.0 | 0.00 | 0.00 | 0.00 | 70 | 1016.6 |
| 20260906213044 | 66 | 76 | 8.7 | 12.2 | 0.00 | 0.00 | 0.00 | 71 | 1016.7 |
| 20260906211552 | 65 | 81 | 7.8 | 10.4 | 0.00 | 0.00 | 0.00 | 70 | 1016.5 |
| 20260906210058 | 65 | 88 | 6.1 | 12.2 | 0.00 | 0.00 | 0.00 | 71 | 1016.7 |
| 20260906204551 | 65 | 73 | 6.1 | 10.4 | 0.00 | 0.00 | 0.00 | 70 | 1016.8 |
| 20260906203050 | 65 | 67 | 7.0 | 11.3 | 0.00 | 0.00 | 0.00 | 70 | 1017.1 |
| 20260906201601 | 65 | 57 | 6.1 | 11.3 | 0.00 | 0.00 | 0.00 | 69 | 1017.2 |
| 20260906200111 | 65 | 105 | 5.2 | 11.3 | 0.00 | 0.00 | 0.00 | 69 | 1017.2 |
| 20260906194554 | 65 | 88 | 9.6 | 16.5 | 0.00 | 0.00 | 0.00 | 68 | 1017.0 |
| 20260906193052 | 65 | 80 | 10.4 | 14.8 | 0.00 | 0.00 | 0.00 | 68 | 1017.1 |
| 20260906191551 | 65 | 54 | 11.3 | 18.2 | 0.00 | 0.00 | 0.00 | 68 | 1017.3 |
| 20260906190139 | 63 | 86 | 13.0 | 18.2 | 0.00 | 0.00 | 0.00 | 71 | 1017.2 |
| 20260906184553 | 62 | 82 | 13.9 | 20.9 | 0.00 | 0.00 | 0.00 | 72 | 1017.5 |
| 20260906183058 | 62 | 83 | 14.8 | 20.9 | 0.00 | 0.00 | 0.00 | 73 | 1017.5 |
| 20260906181601 | 59 | 78 | 13.9 | 20.0 | 0.00 | 0.00 | 0.00 | 77 | 1017.8 |
| 20260906180056 | 59 | 44 | 12.2 | 19.1 | 0.00 | 0.00 | 0.00 | 79 | 1018.7 |
| 20260906174552 | 58 | 33 | 12.2 | 17.4 | 0.00 | 0.00 | 0.00 | 80 | 1019.2 |
| 20260906173057 | 59 | 54 | 9.6 | 14.8 | 0.00 | 0.00 | 0.00 | 82 | 1019.3 |
| 20260906171556 | 58 | 53 | 9.6 | 13.9 | 0.00 | 0.00 | 0.00 | 85 | 1019.2 |
| 20260906170051 | 58 | 61 | 8.7 | 12.2 | 0.00 | 0.00 | 0.00 | 87 | 1019.2 |
| 20260906164552 | 59 | 64 | 6.1 | 11.3 | 0.00 | 0.00 | 0.00 | 87 | 1019.2 |
| 20260906163103 | 58 | 42 | 6.1 | 8.7 | 0.00 | 0.00 | 0.00 | 86 | 1019.1 |
| 20260906161557 | 57 | 38 | 5.2 | 8.7 | 0.00 | 0.00 | 0.00 | 87 | 1019.2 |
| 20260906160059 | 58 | 40 | 8.7 | 12.2 | 0.00 | 0.00 | 0.00 | 86 | 1019.4 |
| 20260906154612 | 59 | 47 | 1.7 | 6.1 | 0.00 | 0.00 | 0.00 | 86 | 1019.7 |
| 20260906153059 | 59 | 75 | 3.5 | 7.0 | 0.00 | 0.00 | 0.00 | 85 | 1019.8 |
| 20260906151600 | 59 | 92 | 6.1 | 8.7 | 0.00 | 0.00 | 0.00 | 85 | 1019.9 |
| 20260906150036 | 60 | 91 | 6.1 | 10.4 | 0.00 | 0.00 | 0.00 | 84 | 1019.9 |
| 20260906144537 | 60 | 113 | 10.4 | 14.8 | 0.00 | 0.00 | 0.00 | 83 | 1019.4 |
| 20260906143033 | 60 | 101 | 12.2 | 17.4 | 0.00 | 0.00 | 0.00 | 83 | 1018.9 |
| 20260906141540 | 59 | 96 | 10.4 | 13.0 | 0.00 | 0.00 | 0.00 | 84 | 1019.4 |
| 20260906140044 | 58 | 112 | 7.0 | 11.3 | 0.00 | 0.00 | 0.00 | 86 | 1019.7 |
| 20260906134535 | 58 | 88 | 7.8 | 13.0 | 0.00 | 0.00 | 0.00 | 87 | 1019.6 |
| 20260906133046 | 57 | 93 | 7.8 | 11.3 | 0.00 | 0.00 | 0.00 | 88 | 1019.6 |
| 20260906131539 | 56 | 82 | 7.8 | 12.2 | 0.00 | 0.00 | 0.00 | 89 | 1019.5 |
| 20260906130046 | 56 | 65 | 7.0 | 10.4 | 0.00 | 0.00 | 0.00 | 89 | 1020.0 |
| 20260906124534 | 56 | 44 | 7.8 | 10.4 | 0.00 | 0.00 | 0.00 | 89 | 1019.9 |
| 20260906123041 | 56 | 57 | 8.7 | 13.0 | 0.00 | 0.00 | 0.00 | 89 | 1019.4 |
| 20260906121536 | 55 | 52 | 7.8 | 11.3 | 0.00 | 0.00 | 0.00 | 90 | 1019.4 |
| 20260906120044 | 54 | 57 | 7.8 | 12.2 | 0.00 | 0.00 | 0.00 | 90 | 1019.3 |
| 20260906114536 | 55 | 63 | 8.7 | 13.0 | 0.00 | 0.00 | 0.00 | 89 | 1019.3 |
| 20260906113041 | 55 | 70 | 10.4 | 15.6 | 0.00 | 0.00 | 0.00 | 89 | 1019.2 |
| 20260906111550 | 55 | 36 | 11.3 | 13.9 | 0.00 | 0.00 | 0.00 | 89 | 1019.4 |
| 20260906110036 | 55 | 53 | 9.6 | 13.9 | 0.00 | 0.00 | 0.00 | 89 | 1019.4 |
| 20260906104536 | 55 | 65 | 10.4 | 14.8 | 0.00 | 0.00 | 0.00 | 90 | 1019.4 |
| 20260906103036 | 54 | 55 | 12.2 | 17.4 | 0.00 | 0.00 | 0.00 | 89 | 1019.6 |
| 20260906101536 | 55 | 49 | 11.3 | 15.6 | 0.00 | 0.00 | 0.00 | 88 | 1019.7 |
| 20260906100036 | 55 | 59 | 13.0 | 17.4 | 0.00 | 0.00 | 0.00 | 88 | 1019.5 |
| 20260906094536 | 55 | 55 | 13.9 | 18.2 | 0.00 | 0.00 | 0.00 | 88 | 1019.3 |
| 20260906093047 | 55 | 63 | 13.9 | 19.1 | 0.00 | 0.00 | 0.00 | 87 | 1019.4 |
| 20260906091535 | 55 | 46 | 13.0 | 19.1 | 0.00 | 0.00 | 0.00 | 87 | 1019.6 |
| 20260906090107 | 55 | 40 | 13.0 | 18.2 | 0.00 | 0.00 | 0.00 | 87 | 1019.8 |
| 20260906084541 | 55 | 44 | 13.9 | 17.4 | 0.00 | 0.00 | 0.00 | 86 | 1019.9 |
| 20260906083042 | 56 | 65 | 13.9 | 20.0 | 0.00 | 0.00 | 0.00 | 85 | 1020.1 |
| 20260906081543 | 56 | 67 | 13.0 | 17.4 | 0.00 | 0.00 | 0.00 | 84 | 1020.0 |
| 20260906080042 | 56 | 57 | 13.0 | 19.1 | 0.00 | 0.00 | 0.00 | 83 | 1020.0 |
| 20260906074551 | 56 | 67 | 13.0 | 20.0 | 0.00 | 0.00 | 0.00 | 83 | 1020.2 |
| 20260906073045 | 56 | 63 | 13.0 | 20.0 | 0.00 | 0.00 | 0.00 | 82 | 1020.3 |
| 20260906071543 | 57 | 47 | 13.0 | 19.1 | 0.00 | 0.00 | 0.00 | 81 | 1020.5 |
| 20260906070042 | 57 | 73 | 13.0 | 19.1 | 0.00 | 0.00 | 0.00 | 81 | 1020.7 |
| 20260906064544 | 57 | 64 | 14.8 | 19.1 | 0.00 | 0.00 | 0.00 | 80 | 1020.7 |
| 20260906063040 | 58 | 68 | 13.9 | 20.0 | 0.00 | 0.00 | 0.00 | 80 | 1021.0 |
| 20260906061550 | 57 | 68 | 13.9 | 19.1 | 0.00 | 0.00 | 0.00 | 79 | 1020.8 |
| 20260906060044 | 57 | 63 | 13.0 | 18.2 | 0.00 | 0.00 | 0.00 | 79 | 1020.9 |
| 20260906054553 | 58 | 60 | 12.2 | 20.0 | 0.00 | 0.00 | 0.00 | 79 | 1020.7 |
| 20260906053100 | 58 | 66 | 13.9 | 20.0 | 0.00 | 0.00 | 0.00 | 78 | 1020.9 |
| 20260906051545 | 58 | 67 | 13.9 | 20.0 | 0.00 | 0.00 | 0.00 | 76 | 1020.7 |
| 20260906050052 | 59 | 62 | 14.8 | 20.9 | 0.00 | 0.00 | 0.00 | 74 | 1020.7 |
| 20260906044547 | 59 | 34 | 13.0 | 19.1 | 0.00 | 0.00 | 0.00 | 73 | 1020.7 |
| 20260906043053 | 59 | 67 | 13.9 | 20.0 | 0.00 | 0.00 | 0.00 | 72 | 1020.0 |
| 20260906041556 | 59 | 61 | 13.0 | 20.9 | 0.00 | 0.00 | 0.00 | 71 | 1019.8 |
| 20260906040050 | 59 | 47 | 15.6 | 20.0 | 0.00 | 0.00 | 0.00 | 71 | 1020.0 |
| 20260906034547 | 59 | 55 | 13.9 | 19.1 | 0.00 | 0.00 | 0.00 | 70 | 1020.4 |
| 20260906033054 | 60 | 33 | 13.9 | 21.7 | 0.00 | 0.00 | 0.00 | 69 | 1020.7 |
| 20260906031547 | 60 | 62 | 13.9 | 20.0 | 0.00 | 0.00 | 0.00 | 68 | 1020.1 |
| 20260906030056 | 60 | 51 | 14.8 | 19.1 | 0.00 | 0.00 | 0.00 | 68 | 1019.4 |
| 20260906024609 | 60 | 67 | 13.9 | 20.0 | 0.00 | 0.00 | 0.00 | 67 | 1019.0 |
| 20260906023059 | 61 | 63 | 13.9 | 20.0 | 0.00 | 0.00 | 0.00 | 66 | 1019.0 |
| 20260906021558 | 61 | 59 | 14.8 | 20.9 | 0.00 | 0.00 | 0.00 | 65 | 1019.1 |
| 20260906020051 | 62 | 86 | 14.8 | 19.1 | 0.00 | 0.00 | 0.00 | 64 | 1019.3 |
| 20260906014554 | 63 | 50 | 12.2 | 19.1 | 0.00 | 0.00 | 0.00 | 61 | 1019.0 |
| 20260906013057 | 65 | 35 | 11.3 | 17.4 | 0.00 | 0.00 | 0.00 | 58 | 1019.0 |
| 20260906011559 | 66 | 42 | 13.9 | 20.9 | 0.00 | 0.00 | 0.00 | 57 | 1018.8 |
| 20260906010128 | 68 | 57 | 15.6 | 20.9 | 0.00 | 0.00 | 0.00 | 53 | 1018.9 |
| 20260906004600 | 70 | 24 | 13.9 | 18.2 | 0.00 | 0.00 | 0.00 | 49 | 1018.9 |
| 20260906003058 | 72 | 32 | 13.9 | 18.2 | 0.00 | 0.00 | 0.00 | 44 | 1018.9 |
| 20260906001603 | 73 | 52 | 10.4 | 16.5 | 0.00 | 0.00 | 0.00 | 37 | 1018.8 |
| 20260906000107 | 74 | 76 | 8.7 | 13.0 | 0.00 | 0.00 | 0.00 | 35 | 1018.9 |
| 20260905234547 | 73 | 65 | 7.8 | 15.6 | 0.00 | 0.00 | 0.00 | 36 | 1019.1 |
| 20260905233055 | 75 | 60 | 7.8 | 13.0 | 0.00 | 0.00 | 0.00 | 34 | 1019.1 |
| 20260905231553 | 75 | 66 | 7.8 | 13.9 | 0.00 | 0.00 | 0.00 | 34 | 1019.2 |
| 20260905230111 | 75 | 74 | 7.0 | 12.2 | 0.00 | 0.00 | 0.00 | 35 | 1019.1 |